When you browse on this site, cookies collect data to enhance your experience and personalize the content and advertising you see.
Visit our Privacy Policy to learn more. By continuing to use the site, you agree to this use of cookies and data.
  • In Switzerland
  • List of Countries
  • For 7 days
  • Water Temperature
  • Weather Map
  • Weather Widgets
  • user-avatar
    Login

    Hourly Weather Iowa City

    Today, 6 June, Saturday

    Time Temperature Precipitation Wind Pressure Humidity
    00:00 +21°C° 0 mm 3 mps 742 mmHg 93%
    01:00 +20°C° 0 mm 3 mps 742 mmHg 90%
    02:00 +19°C° 0 mm 3 mps 742 mmHg 87%
    03:00 +19°C° 0 mm 3 mps 742 mmHg 85%
    04:00 +19°C° 0 mm 3 mps 742 mmHg 83%
    05:00 +18°C° 0 mm 3 mps 743 mmHg 81%
    06:00 +18°C° 0 mm 3 mps 743 mmHg 80%
    07:00 +20°C° 0 mm 3 mps 743 mmHg 76%
    08:00 +21°C° 0 mm 4 mps 744 mmHg 72%
    09:00 +23°C° 0 mm 4 mps 744 mmHg 68%
    10:00 +25°C° 0 mm 4 mps 744 mmHg 66%
    11:00 +26°C° 0 mm 4 mps 744 mmHg 64%
    12:00 +27°C° 0 mm 4 mps 744 mmHg 62%
    13:00 +27°C° 0 mm 4 mps 743 mmHg 61%
    14:00 +27°C° 0 mm 4 mps 743 mmHg 61%
    15:00 +28°C° 0 mm 4 mps 742 mmHg 61%
    16:00 +27°C° 0 mm 3 mps 742 mmHg 65%
    17:00 +27°C° 0 mm 3 mps 742 mmHg 70%
    18:00 +26°C° 0 mm 3 mps 742 mmHg 74%
    19:00 +25°C° 0 mm 3 mps 742 mmHg 75%
    20:00 +22°C° 0 mm 3 mps 742 mmHg 76%
    21:00 +21°C° 0 mm 4 mps 742 mmHg 77%
    22:00 +20°C° 0 mm 4 mps 742 mmHg 77%
    23:00 +20°C° 0 mm 4 mps 742 mmHg 77%

    Tomorrow, 7 June, Sunday

    Time Temperature Precipitation Wind Pressure Humidity
    00:00 +19°C° 0 mm 5 mps 742 mmHg 77%
    01:00 +17°C° 0 mm 5 mps 742 mmHg 74%
    02:00 +16°C° 0 mm 5 mps 742 mmHg 72%
    03:00 +16°C° 0 mm 5 mps 742 mmHg 69%
    04:00 +15°C° 0 mm 5 mps 742 mmHg 71%
    05:00 +15°C° 0 mm 5 mps 742 mmHg 73%
    06:00 +15°C° 0 mm 5 mps 742 mmHg 75%
    07:00 +16°C° 0 mm 5 mps 742 mmHg 73%
    08:00 +19°C° 0 mm 5 mps 742 mmHg 71%
    09:00 +21°C° 0 mm 5 mps 742 mmHg 69%
    10:00 +22°C° 0 mm 5 mps 742 mmHg 69%
    11:00 +25°C° 0 mm 5 mps 742 mmHg 70%
    12:00 +27°C° 0 mm 5 mps 742 mmHg 70%
    13:00 +28°C° 0 mm 5 mps 741 mmHg 71%
    14:00 +28°C° 0 mm 5 mps 741 mmHg 72%
    15:00 +29°C° 0 mm 5 mps 740 mmHg 72%
    16:00 +29°C° 0 mm 5 mps 740 mmHg 76%
    17:00 +29°C° 0 mm 5 mps 740 mmHg 79%
    18:00 +28°C° 0 mm 4 mps 739 mmHg 82%
    19:00 +27°C° 0 mm 5 mps 739 mmHg 86%
    20:00 +26°C° 0 mm 5 mps 739 mmHg 89%
    21:00 +23°C° 0 mm 5 mps 739 mmHg 92%
    22:00 +23°C° 0 mm 5 mps 740 mmHg 91%
    23:00 +23°C° 0 mm 5 mps 740 mmHg 90%

    Day after tomorrow, 8 June, Monday

    Time Temperature Precipitation Wind Pressure Humidity
    00:00 +22°C° 0 mm 5 mps 740 mmHg 88%
    01:00 +22°C° 0 mm 5 mps 740 mmHg 87%
    02:00 +21°C° 0 mm 5 mps 739 mmHg 86%
    03:00 +21°C° 0 mm 4 mps 739 mmHg 85%
    04:00 +21°C° 0 mm 4 mps 739 mmHg 86%
    05:00 +21°C° 0 mm 4 mps 739 mmHg 86%
    06:00 +20°C° 0 mm 4 mps 739 mmHg 87%
    07:00 +22°C° 0 mm 4 mps 739 mmHg 83%
    08:00 +23°C° 0 mm 5 mps 740 mmHg 79%
    09:00 +26°C° 0 mm 5 mps 740 mmHg 75%
    10:00 +27°C° 0 mm 5 mps 740 mmHg 73%
    11:00 +28°C° 0 mm 5 mps 740 mmHg 70%
    12:00 +29°C° 0 mm 5 mps 740 mmHg 67%
    13:00 +30°C° 0 mm 4 mps 739 mmHg 66%
    14:00 +30°C° 0 mm 4 mps 739 mmHg 64%
    15:00 +30°C° 0 mm 4 mps 738 mmHg 63%
    16:00 +29°C° 0 mm 4 mps 738 mmHg 67%
    17:00 +29°C° 0 mm 3 mps 738 mmHg 71%
    18:00 +28°C° 0 mm 3 mps 737 mmHg 74%
    19:00 +26°C° 0 mm 3 mps 737 mmHg 78%
    20:00 +25°C° 0 mm 4 mps 737 mmHg 81%
    21:00 +23°C° 0 mm 4 mps 737 mmHg 84%
    22:00 +22°C° 0 mm 4 mps 737 mmHg 83%
    23:00 +22°C° 0 mm 4 mps 737 mmHg 82%

    9 June, Tuesday

    Time Temperature Precipitation Wind Pressure Humidity
    00:00 +22°C° 0 mm 4 mps 736 mmHg 81%
    01:00 +22°C° 0 mm 4 mps 736 mmHg 81%
    02:00 +22°C° 0 mm 4 mps 736 mmHg 81%
    03:00 +21°C° 0 mm 4 mps 735 mmHg 81%
    04:00 +21°C° 1.2 mm 4 mps 735 mmHg 86%
    05:00 +20°C° 1.2 mm 3 mps 734 mmHg 91%
    06:00 +20°C° 1.2 mm 3 mps 733 mmHg 95%
    07:00 +20°C° 3.4 mm 5 mps 732 mmHg 96%
    08:00 +20°C° 3.4 mm 6 mps 731 mmHg 96%
    09:00 +20°C° 3.4 mm 8 mps 730 mmHg 96%
    10:00 +20°C° 10.5 mm 7 mps 729 mmHg 97%
    11:00 +20°C° 10.5 mm 6 mps 728 mmHg 97%
    12:00 +21°C° 10.5 mm 5 mps 727 mmHg 98%
    13:00 +21°C° 3.1 mm 5 mps 726 mmHg 98%
    14:00 +21°C° 3.1 mm 4 mps 726 mmHg 97%
    15:00 +21°C° 3.1 mm 4 mps 726 mmHg 96%
    16:00 +22°C° 0 mm 4 mps 726 mmHg 94%
    17:00 +22°C° 0 mm 5 mps 727 mmHg 91%
    18:00 +23°C° 0 mm 5 mps 728 mmHg 89%
    19:00 +22°C° 0 mm 4 mps 728 mmHg 91%
    20:00 +21°C° 0 mm 3 mps 729 mmHg 93%
    21:00 +21°C° 0 mm 1 mps 729 mmHg 95%
    22:00 +21°C° 0.6 mm 1 mps 729 mmHg 95%
    23:00 +20°C° 0.6 mm 2 mps 728 mmHg 96%

    10 June, Wednesday

    Time Temperature Precipitation Wind Pressure Humidity
    00:00 +20°C° 0.6 mm 2 mps 728 mmHg 97%
    01:00 +20°C° 1 mm 3 mps 728 mmHg 97%
    02:00 +20°C° 1 mm 4 mps 728 mmHg 97%
    03:00 +20°C° 1 mm 5 mps 727 mmHg 97%
    04:00 +18°C° 1.1 mm 7 mps 728 mmHg 95%
    05:00 +16°C° 1.1 mm 10 mps 728 mmHg 93%
    06:00 +13°C° 1.1 mm 12 mps 729 mmHg 91%
    07:00 +14°C° 1 mm 11 mps 730 mmHg 88%
    08:00 +16°C° 1 mm 10 mps 732 mmHg 84%
    09:00 +17°C° 1 mm 9 mps 733 mmHg 81%
    10:00 +19°C° 0.2 mm 9 mps 734 mmHg 75%
    11:00 +21°C° 0.2 mm 10 mps 736 mmHg 70%
    12:00 +22°C° 0.2 mm 10 mps 737 mmHg 64%
    13:00 +22°C° 0.1 mm 9 mps 737 mmHg 64%
    14:00 +23°C° 0.1 mm 9 mps 737 mmHg 65%
    15:00 +23°C° 0.1 mm 8 mps 738 mmHg 65%
    16:00 +22°C° 0 mm 7 mps 738 mmHg 68%
    17:00 +22°C° 0 mm 6 mps 738 mmHg 72%
    18:00 +21°C° 0 mm 5 mps 738 mmHg 75%
    19:00 +20°C° 0 mm 5 mps 739 mmHg 77%
    20:00 +19°C° 0 mm 4 mps 739 mmHg 79%
    21:00 +18°C° 0 mm 4 mps 739 mmHg 81%
    22:00 +17°C° 0 mm 3 mps 739 mmHg 84%
    23:00 +17°C° 0 mm 3 mps 740 mmHg 87%

    11 June, Thursday

    Time Temperature Precipitation Wind Pressure Humidity
    00:00 +16°C° 0 mm 3 mps 740 mmHg 91%
    01:00 +16°C° 0 mm 3 mps 740 mmHg 90%
    02:00 +14°C° 0 mm 3 mps 740 mmHg 89%
    03:00 +14°C° 0 mm 3 mps 740 mmHg 88%
    04:00 +14°C° 0 mm 3 mps 741 mmHg 85%
    05:00 +14°C° 0 mm 3 mps 741 mmHg 83%
    06:00 +14°C° 0 mm 3 mps 742 mmHg 81%
    07:00 +15°C° 0 mm 5 mps 742 mmHg 77%
    08:00 +15°C° 0 mm 6 mps 743 mmHg 72%
    09:00 +16°C° 0 mm 7 mps 743 mmHg 68%
    10:00 +16°C° 0 mm 7 mps 743 mmHg 68%
    11:00 +17°C° 0 mm 7 mps 743 mmHg 67%
    12:00 +17°C° 0 mm 7 mps 743 mmHg 67%
    13:00 +16°C° 0.1 mm 7 mps 743 mmHg 69%
    14:00 +16°C° 0.1 mm 6 mps 743 mmHg 71%
    15:00 +15°C° 0.1 mm 6 mps 743 mmHg 73%
    16:00 +15°C° 0 mm 6 mps 743 mmHg 75%
    17:00 +14°C° 0 mm 5 mps 743 mmHg 76%
    18:00 +14°C° 0 mm 5 mps 743 mmHg 78%
    19:00 +13°C° 0 mm 5 mps 744 mmHg 78%
    20:00 +12°C° 0 mm 5 mps 744 mmHg 79%
    21:00 +10°C° 0 mm 5 mps 744 mmHg 79%
    22:00 +10°C° 0 mm 4 mps 744 mmHg 80%
    23:00 +8°C° 0 mm 4 mps 745 mmHg 82%
    Show more